timestamp,surface_pressure_avg,surface_temp_avg,battery_voltage,lat,long
2020-04-18 05:19:01+00:00,251.5681,1.94,12.57,47.84626,-54.09684
2020-04-18 05:29:01+00:00,257.1764,1.9,12.57,47.84626,-54.09684
2020-04-18 05:39:01+00:00,261.0414,1.8,12.57,47.84626,-54.09684
2020-04-18 05:49:01+00:00,269.4831,1.8,12.57,47.84626,-54.09684
2020-04-18 05:59:01+00:00,277.4914,1.85,12.57,47.84626,-54.09684
2020-04-18 06:09:01+00:00,280.2497,1.9,12.57,47.84626,-54.09684
2020-04-18 06:19:01+00:00,284.5247,1.9,12.57,47.84626,-54.09684
2020-04-18 06:29:01+00:00,295.033,1.93,12.57,47.84626,-54.09684
2020-04-18 06:39:01+00:00,296.0613,1.93,12.57,47.84626,-54.09684
2020-04-18 06:49:01+00:00,293.5663,1.96,12.57,47.84626,-54.09684
2020-04-18 06:59:01+00:00,300.2963,2.0,12.57,47.84626,-54.09684
2020-04-18 07:09:01+00:00,306.593,1.98,12.57,47.84626,-54.09684
2020-04-18 07:19:01+00:00,305.6447,2.04,12.57,47.84626,-54.09684
2020-04-18 07:29:01+00:00,307.1164,2.1,12.57,47.84626,-54.09684
2020-04-18 07:39:01+00:00,314.0513,2.1,12.57,47.84626,-54.09684
2020-04-18 07:49:01+00:00,316.7579,2.1,12.57,47.84626,-54.09684
2020-04-18 07:59:01+00:00,314.8563,2.07,12.57,47.84626,-54.09684
2020-04-18 08:09:01+00:00,318.653,2.1,12.57,47.84626,-54.09684
2020-04-18 08:19:01+00:00,326.488,2.12,12.57,47.84626,-54.09684
2020-04-18 08:29:01+00:00,330.6896,2.1,12.57,47.84626,-54.09684
2020-04-18 08:39:01+00:00,325.8397,1.9,12.57,47.84626,-54.09684
2020-04-18 08:49:01+00:00,326.1913,1.9,12.57,47.84626,-54.09684
2020-04-18 08:59:01+00:00,330.7147,1.8,12.57,47.84626,-54.09684
2020-04-18 09:09:01+00:00,326.9296,1.8,12.57,47.84626,-54.09684
2020-04-18 09:19:01+00:00,320.5347,1.9,12.57,47.84626,-54.09684
2020-04-18 09:29:01+00:00,323.3063,1.9,12.57,47.84626,-54.09684
2020-04-18 09:39:01+00:00,325.528,1.89,12.57,47.84626,-54.09684
2020-04-18 09:49:01+00:00,318.8947,1.8,12.57,47.84626,-54.09684
2020-04-18 09:59:01+00:00,315.7263,1.8,12.57,47.84626,-54.09684
2020-04-18 10:09:01+00:00,316.3914,1.79,12.57,47.84626,-54.09684
2020-04-18 10:19:01+00:00,314.923,1.83,13.44,47.84626,-54.09684
2020-04-18 10:29:01+00:00,309.6464,1.9,13.44,47.84626,-54.09684
2020-04-18 10:39:01+00:00,303.988,1.9,13.44,47.84626,-54.09684
2020-04-18 10:49:01+00:00,300.0831,1.92,13.44,47.84626,-54.09684
2020-04-18 10:59:01+00:00,297.4097,1.9,13.44,47.84626,-54.09684
2020-04-18 11:09:01+00:00,293.4963,1.87,13.44,47.84626,-54.09684
2020-04-18 11:19:01+00:00,287.4913,1.88,14.64,47.84626,-54.09684
2020-04-18 11:29:01+00:00,282.5364,1.9,14.64,47.84626,-54.09684
2020-04-18 11:39:01+00:00,278.0847,1.9,14.64,47.84626,-54.09684
2020-04-18 11:49:01+00:00,272.2114,2.0,14.64,47.84626,-54.09684
2020-04-18 11:59:01+00:00,269.1581,1.99,14.64,47.84626,-54.09684
2020-04-18 12:09:01+00:00,265.7697,1.9,14.64,47.84626,-54.09684
2020-04-18 12:19:01+00:00,261.2531,1.9,14.72,47.84626,-54.09684
2020-04-18 12:29:01+00:00,253.7081,1.9,14.72,47.84626,-54.09684
2020-04-18 12:39:01+00:00,249.5681,1.86,14.72,47.84626,-54.09684
2020-04-18 12:49:01+00:00,251.8098,1.8,14.72,47.84626,-54.09684
2020-04-18 12:59:01+00:00,248.0731,1.8,14.72,47.84626,-54.09684
2020-04-18 13:09:01+00:00,238.0364,1.85,14.72,47.84626,-54.09684
2020-04-18 13:19:01+00:00,232.8748,1.88,14.72,47.84626,-54.09684
2020-04-18 13:29:01+00:00,234.8648,1.84,14.72,47.84626,-54.09684
2020-04-18 13:39:01+00:00,228.9297,1.84,14.72,47.84626,-54.09684
2020-04-18 13:49:01+00:00,222.0298,1.87,14.72,47.84626,-54.09684
2020-04-18 13:59:01+00:00,224.6715,1.9,14.72,47.84626,-54.09684
2020-04-18 14:09:01+00:00,225.1931,1.9,14.72,47.84626,-54.09684
2020-04-18 14:19:01+00:00,218.1147,1.96,14.64,47.84626,-54.09684
2020-04-18 14:29:01+00:00,212.4764,2.0,14.64,47.84626,-54.09684
2020-04-18 14:39:01+00:00,215.5031,2.04,14.64,47.84626,-54.09684
2020-04-18 14:49:01+00:00,218.9198,2.04,14.64,47.84626,-54.09684
2020-04-18 14:59:01+00:00,212.9431,2.09,14.64,47.84626,-54.09684
2020-04-18 15:09:01+00:00,208.3331,2.1,14.64,47.84626,-54.09684
2020-04-18 15:19:01+00:00,214.7932,2.1,14.64,47.84626,-54.09684
2020-04-18 15:29:01+00:00,218.6447,2.0,14.64,47.84626,-54.09684
2020-04-18 15:39:01+00:00,212.5465,2.0,14.64,47.84626,-54.09684
2020-04-18 15:49:01+00:00,213.1231,2.0,14.64,47.84626,-54.09684
2020-04-18 15:59:01+00:00,221.2815,1.98,14.64,47.84626,-54.09684
2020-04-18 16:09:01+00:00,220.4215,2.0,14.64,47.84626,-54.09684
2020-04-18 16:19:01+00:00,216.3965,2.07,14.48,47.84626,-54.09684
2020-04-18 16:29:01+00:00,219.7981,2.1,14.48,47.84626,-54.09684
2020-04-18 16:39:01+00:00,223.9365,2.1,14.48,47.84626,-54.09684
2020-04-18 16:49:01+00:00,223.4348,2.17,14.48,47.84626,-54.09684
2020-04-18 16:59:01+00:00,223.7297,2.2,14.48,47.84626,-54.09684
2020-04-18 17:09:01+00:00,225.7881,2.2,14.48,47.84626,-54.09684
2020-04-18 17:19:01+00:00,230.8398,2.17,14.24,47.84626,-54.09684
2020-04-18 17:29:01+00:00,233.673,2.21,14.24,47.84626,-54.09684
2020-04-18 17:39:01+00:00,235.3381,2.2,14.24,47.84626,-54.09684
2020-04-18 17:49:01+00:00,236.9198,2.1,14.24,47.84626,-54.09684
2020-04-18 17:59:01+00:00,241.4481,2.07,14.24,47.84626,-54.09684
2020-04-18 18:09:01+00:00,243.8064,2.2,14.24,47.84626,-54.09684
2020-04-18 18:19:01+00:00,248.7598,2.3,14.24,47.84626,-54.09684
2020-04-18 18:29:01+00:00,252.2097,2.3,14.24,47.84626,-54.09684
2020-04-18 18:39:01+00:00,258.0414,2.38,14.24,47.84626,-54.09684
2020-04-18 18:49:01+00:00,264.7914,2.3,14.24,47.84626,-54.09684
2020-04-18 18:59:01+00:00,269.2247,2.39,14.24,47.84626,-54.09684
2020-04-18 19:09:01+00:00,270.1714,2.4,14.24,47.84626,-54.09684
2020-04-18 19:19:01+00:00,276.6747,2.4,14.08,47.84626,-54.09684
2020-04-18 19:29:01+00:00,283.5464,1.93,14.08,47.84626,-54.09684
2020-04-18 19:39:01+00:00,284.3614,1.88,14.08,47.84626,-54.09684
2020-04-18 19:49:01+00:00,284.9764,2.18,14.08,47.84626,-54.09684
2020-04-18 19:59:01+00:00,292.9797,2.2,14.08,47.84626,-54.09684
2020-04-18 20:09:01+00:00,298.7714,1.9,14.08,47.84626,-54.09684
2020-04-18 20:19:01+00:00,301.0313,1.81,13.92,47.84626,-54.09684
2020-04-18 20:29:01+00:00,302.7064,1.93,13.92,47.84626,-54.09684
2020-04-18 20:39:01+00:00,307.3214,2.0,13.92,47.84626,-54.09684
2020-04-18 20:49:01+00:00,311.6281,2.0,13.92,47.84626,-54.09684
2020-04-18 20:59:01+00:00,310.3047,2.23,13.92,47.84626,-54.09684
2020-04-18 21:09:01+00:00,309.4314,2.3,13.92,47.84626,-54.09684
2020-04-18 21:19:01+00:00,313.2113,2.28,13.84,47.84626,-54.09684
2020-04-18 21:29:01+00:00,311.9963,2.29,13.84,47.84626,-54.09684
2020-04-18 21:39:01+00:00,308.6196,2.3,13.84,47.84626,-54.09684
2020-04-18 21:49:01+00:00,311.2297,2.3,13.84,47.84626,-54.09684
2020-04-18 21:59:01+00:00,314.2931,2.38,13.84,47.84626,-54.09684
2020-04-18 22:09:01+00:00,311.3363,2.4,13.84,47.84626,-54.09684
2020-04-18 22:19:01+00:00,308.9797,2.4,13.53,47.84626,-54.09684
2020-04-18 22:29:01+00:00,307.6913,2.4,13.53,47.84626,-54.09684
2020-04-18 22:39:01+00:00,303.4113,2.3,13.53,47.84626,-54.09684
2020-04-18 22:49:01+00:00,299.4013,2.2,13.53,47.84626,-54.09684
2020-04-18 22:59:01+00:00,300.0663,2.3,13.53,47.84626,-54.09684
2020-04-18 23:09:01+00:00,297.0997,2.46,13.53,47.84626,-54.09684
2020-04-18 23:19:01+00:00,288.7547,2.5,13.13,47.84626,-54.09684
2020-04-18 23:29:01+00:00,283.4097,2.5,13.13,47.84626,-54.09684
2020-04-18 23:39:01+00:00,282.578,2.5,13.13,47.84626,-54.09684
2020-04-18 23:49:01+00:00,276.6281,2.5,13.13,47.84626,-54.09684
2020-04-18 23:59:01+00:00,265.2448,2.5,13.13,47.84626,-54.09684
